FENGYUN 1C DEB, 31364

Orbit data source: Space-Track

FENGYUN 1C DEB, 31364 is space debris in SSO originally from a launch on Mon, 10 May 1999 UTC launched from the Taiyaun Space Center, China (TSC). Fengyun 1C debris stems from the Chinese weather satellite Fengyun-1C, which was intentionally destroyed by a Chinese anti-satellite missile in 2007. This event dramatically increased the amount of space debris, with thousands of trackable fragments posing hazards to satellites and human spaceflight. The Fengyun 1C debris cloud has become a focal point in discussions about space sustainability and the need for international regulations to prevent the creation of new debris.

Loading next visibility...
Identifier
31364, 1999-025BRU
Orbit
SSO
Country
Flag of CNCN / PRC
Related business
Manufacturer
Unknown
Mission
Spacecraft
Bus & Motor
Unknown
Mass
Unknown
Launch date (UTC)
1999-05-10 (27 years ago)
Launch vehicle
Unknown
Launch site
Taiyaun Space Center, China (TSC)
Object type
Payload
Rocket body
Debris
Shape & HBR
Unknown shape, 0.1 m
Radar Cross Section
Medium (>0.1 m² and <1 m²)

Expand to show TLE details & history
Last TLE update: 1 day ago

TLE from 1 day ago
0 FENGYUN 1C DEB
1 31364U 99025BRU 26257.32645031  .00003059  00000-0  14774-2 0  9990
2 31364  99.2702  33.0072 0090666  93.2387 267.9164 14.17232747987773
Epoch: 2026-09-14T07:50Z
TLE epoch observation values (Epoch: 2026-09-14T07:50:05.306Z)
Latitude
-0.00002°
Longitude
-77.82326°
Altitude
840.589 km
Speed
7.431 km/s
True Right ascension
02h 12m 01s
True Declination
0° 00' 00"
Sunlit
Object was in full shadow at epoch
Visualization orbit readout
Latitude
Unknown
Longitude
Unknown
Altitude
Unknown
Speed
Unknown
Apparent Right ascension
Unknown
Apparent Declination
Unknown
Sunlit
N/A
Visualization observer readout
Local Sidereal Time
00:26:06
Azimuth
Unknown
Elevation
Unknown
Doppler factor
Unknown
Orbital elements
Apogee altitude
897.287 km
Perigee altitude
766.546 km
Semi-major axis
7,210.053 km
Eccentricity
0.00907
Inclination
99.2702°
RAAN
33.0072°
Arg. of periapsis
93.2387°
True anomaly
266.87862°
Mean anomaly
267.9164°
Eccentric anomaly
267.39746°
Mean motion
3.54516 °/min
Orbital period
101.55 mins
BSTAR
0.0014774
Loading maneuver chart data...
Computing Atmospheric mass density...

Documentation

Showing up to 5 results
|